SERIAL,TIME,MODEL,SN(OPTODE),OXYGEN,SATURATION,TEMPERATURE,CALPHASE,TCPHASE,C1RPH,C2RPH,C1AMP,C2AMP,RAWTEMP,CHECK
2,1314043247,4330,355,197.7048950195312500,60.4884986877441400,13.2632198333740230,34.5980415344238300,36.6198005676269500,40.0292091369628900,3.4094090461730957,753.6166992187500000,676.7459106445312000,413.3771972656250000,52992
2,1314046843,4330,355,196.1322937011718800,59.9977989196777340,13.2560596466064450,34.6981201171875000,36.7175712585449200,40.1073799133300800,3.3898088932037354,756.2169189453125000,676.8287963867188000,413.6070861816406000,46366
2,1314050443,4330,355,195.1212005615234400,59.6869392395019500,13.2548904418945310,34.7611808776855500,36.7791786193847660,40.1696205139160160,3.3904340267181396,757.7698974609375000,676.8300781250000000,413.6447143554687500,40473
2,1314054043,4330,355,195.0363006591797000,59.6559982299804700,13.2511501312255860,34.7686309814453100,36.7864608764648440,40.1676597595214840,3.3812029361724854,757.9605102539062000,676.8886718750000000,413.7648925781250000,2558
2,1314057643,4330,355,196.7718963623047000,60.1989707946777340,13.2601900100708000,34.6567306518554700,36.6771392822265600,40.0614814758300800,3.3843379020690920,755.0156860351562000,676.8184814453125000,413.4742126464844000,63154
2,1314061243,4330,355,194.8302001953125000,59.5970191955566400,13.2542200088500980,34.7798805236816400,36.7974510192871100,40.1655616760253900,3.3681030273437500,758.1721191406250000,676.8378295898438000,413.6661987304687500,27690
2,1314064843,4330,355,194.9371032714843800,59.6192016601562500,13.2463102340698240,34.7773513793945300,36.7949790954589840,40.1605491638183600,3.3655700683593750,758.2020263671875000,676.9630126953125000,413.9202880859375000,112
2,1314068443,4330,355,194.6280975341797000,59.5121917724609400,13.2368803024292000,34.8013610839843750,36.8184394836425800,40.1922302246093750,3.3737869262695312,758.5996704101562000,676.9896240234375000,414.2233886718750000,38373
2,1314072043,4330,355,197.9743957519531200,60.5349998474121100,13.2365798950195310,34.5947914123535160,36.6166191101074200,39.9822692871093750,3.3656539916992188,753.2362060546875000,676.9932861328125000,414.2330017089844000,57351
2,1314075643,4330,355,195.0816955566406200,59.6581802368164060,13.2423601150512700,34.7702217102050800,36.7880210876464840,40.1602516174316400,3.3722310066223145,757.7285766601562000,676.9224853515625000,414.0474853515625000,5187
2,1314079243,4330,355,195.9223022460937500,59.9142494201660160,13.2416095733642580,34.7183113098144500,36.7373008728027340,40.1134605407714840,3.3761670589447020,756.3765869140625000,676.9061279296875000,414.0714111328125000,63791
2,1314082844,4330,355,198.4974060058593800,60.7277297973632800,13.2608404159545900,34.5506210327148440,36.5734596252441400,39.9483795166015600,3.3749160766601562,752.1353149414062000,676.8413696289062000,413.4533996582031000,41783
2,1314086444,4330,355,197.5234069824218800,60.4478797912597660,13.2743101119995120,34.6031799316406250,36.6248207092285160,40.0000610351562500,3.3752439022064210,753.5892944335938000,676.7603759765625000,413.0208129882812500,23471
2,1314090044,4330,355,194.9084930419922000,59.6512794494628900,13.2770500183105470,34.7635192871093750,36.7814712524414060,40.1560516357421900,3.3745799064636230,757.5866088867188000,676.6538085937500000,412.9325866699219000,13360
2,1314093644,4330,355,195.1376037597656200,59.7007598876953100,13.2615203857421880,34.7570610046386700,36.7751617431640600,40.1301689147949200,3.3550109863281250,757.6569824218750000,676.8065795898438000,413.4317016601562500,17702
2,1314097244,4330,355,192.3681030273437500,58.8525810241699200,13.2608604431152340,34.9307899475097660,36.9448890686035160,40.3073883056640600,3.3624949455261230,762.0817871093750000,676.7985229492188000,413.4529113769531000,3911
2,1314100844,4330,355,196.3549957275390600,60.0735588073730500,13.2617702484130860,34.6819496154785160,36.7017707824707000,40.0628700256347660,3.3610920906066895,755.4481811523438000,676.7335205078125000,413.4234924316406000,60305
2,1314104443,4330,355,196.2835998535156200,60.0263595581054700,13.2428197860717770,34.6959114074707000,36.7154197692871100,40.0814208984375000,3.3660049438476562,755.5477294921875000,676.7041015625000000,414.0324096679687500,62262
2,1314108043,4330,355,194.5231018066406200,59.4757804870605500,13.2336101531982420,34.8093795776367200,36.8262710571289060,40.1819801330566400,3.3557050228118896,758.4995727539062000,676.7761230468750000,414.3284912109375000,17133
2,1314111643,4330,355,196.0747985839843800,59.9406890869140600,13.2265100479125980,34.7167816162109400,36.7358016967773440,40.0980110168457000,3.3622059822082520,755.9199829101562000,676.8092041015625000,414.5564880371094000,7317
2,1314115243,4330,355,198.3744049072265600,60.6581993103027340,13.2372398376464840,34.5701217651367200,36.5925102233886700,39.9629707336425800,3.3704528808593750,752.2216796875000000,676.8352050781250000,414.2117004394531000,7783
2,1314118843,4330,355,197.5534973144531200,60.4119911193847660,13.2407798767089840,34.6187400817871100,36.6400108337402340,40.0010986328125000,3.3610839843750000,753.5051879882812000,676.6848754882812000,414.0981140136719000,46056
2,1314122443,4330,355,195.4613037109375000,59.7658805847168000,13.2360601425170900,34.7496490478515600,36.7679100036621100,40.1294708251953100,3.3615570068359375,756.8978881835938000,676.7556762695312000,414.2497863769531000,36760
2,1314126044,4330,355,198.0877990722656200,60.6037406921386700,13.2617998123168950,34.5751304626464840,36.5974082946777340,39.9533195495605500,3.3559110164642334,752.5374145507812000,676.6030273437500000,413.4224853515625000,61409
2,1314129644,4330,355,195.8890991210937500,59.9305000305175800,13.2613897323608400,34.7105216979980500,36.7296905517578100,40.0799407958984400,3.3502500057220460,756.1088256835938000,676.6729736328125000,413.4359130859375000,4630
2,1314133244,4330,355,194.4105987548828000,59.4790000915527340,13.2620201110839840,34.8021888732910160,36.8192481994628900,40.1722106933593750,3.3529589176177980,758.5280151367188000,676.6900024414062000,413.4155883789062500,31421
2,1314136844,4330,355,194.5946044921875000,59.5318412780761700,13.2594203948974610,34.7920112609863300,36.8092994689941400,40.1561889648437500,3.3468859195709230,758.1411132812500000,676.6372070312500000,413.4989929199219000,15362
2,1314140444,4330,355,193.1302032470703000,59.0727386474609400,13.2509803771972660,34.8881683349609400,36.9032516479492200,40.2633514404296900,3.3601000308990480,760.5424194335938000,676.6751098632812000,413.7703857421875000,26231
2,1314144044,4330,355,192.8090057373047000,58.9737396240234400,13.2504100799560550,34.9085693359375000,36.9231796264648440,40.2739410400390600,3.3507609367370605,761.1212158203125000,676.7005004882812000,413.7887878417969000,1283
2,1314147643,4330,355,195.0635070800781200,59.6586685180664060,13.2469100952148440,34.7694396972656250,36.7872505187988300,40.1386604309082000,3.3514020442962646,757.3690795898438000,676.6544799804688000,413.9010925292969000,39224
2,1314151243,4330,355,196.5391998291015600,60.1099891662597660,13.2468900680542000,34.6778602600097660,36.6977806091308600,40.0504913330078100,3.3527069091796875,755.0109863281250000,676.6290893554688000,413.9018859863281000,29000
2,1314154843,4330,355,194.9891052246093800,59.6368293762207000,13.2475900650024410,34.7733001708984400,36.7910194396972660,40.1395416259765600,3.3485178947448730,757.4912719726562000,676.5861816406250000,413.8793029785156000,32165
2,1314158443,4330,355,194.3506011962890600,59.4422111511230500,13.2481098175048830,34.8126983642578100,36.8295211791992200,40.1854400634765600,3.3559188842773438,758.4074096679688000,676.5767822265625000,413.8624877929687500,46462
2,1314162043,4330,355,196.0959014892578000,59.9965896606445300,13.2635002136230470,34.6964302062988300,36.7159309387207000,40.0659904479980500,3.3500669002532960,755.3270874023438000,676.4611206054688000,413.3678894042969000,18189
2,1314165643,4330,355,195.5514068603515600,59.8306388854980500,13.2639799118042000,34.7304382324218750,36.7491493225097660,40.1107788085937500,3.3616259098052980,756.2291259765625000,676.3972778320312000,413.3526000976562500,51183
2,1314169244,4330,355,195.8200988769531200,59.9103507995605500,13.2621097564697270,34.7146492004394500,36.7337303161621100,40.0939598083496100,3.3602368831634520,755.8015136718750000,676.4605712890625000,413.4126892089844000,25506
2,1314172844,4330,355,194.9326019287109400,59.6391601562500000,13.2623596191406250,34.7692718505859400,36.7870903015136700,40.1487083435058600,3.3616259098052980,757.2341918945312000,676.4555053710938000,413.4047851562500000,4716
2,1314176444,4330,355,196.7380065917968800,60.1906700134277340,13.2617101669311520,34.6577415466308600,36.6781196594238300,40.0294494628906250,3.3513259887695312,754.3140869140625000,676.4826049804688000,413.4254150390625000,11231
2,1314180043,4330,355,194.5930023193359400,59.5273590087890600,13.2564001083374020,34.7935104370117200,36.8107681274414060,40.1693687438964840,3.3586039543151855,757.7272949218750000,676.4219970703125000,413.5963134765625000,21824
2,1314183643,4330,355,197.2897033691406200,60.3614311218261700,13.2631998062133790,34.6235885620117200,36.6447601318359400,39.9959907531738300,3.3512270450592040,753.3875732421875000,676.3884277343750000,413.3776855468750000,4446
2,1314187243,4330,355,194.7492980957031200,59.5811996459960940,13.2609100341796880,34.7813110351562500,36.7988510131835940,40.1425781250000000,3.3437271118164062,757.3787841796875000,676.2922973632812000,413.4512023925781000,16124
2,1314190843,4330,355,192.7447052001953000,58.9552688598632800,13.2512998580932620,34.9121894836425800,36.9267196655273440,40.2715797424316400,3.3448560237884520,760.8801269531250000,676.4038696289062000,413.7601013183594000,55004
2,1314194443,4330,355,192.5099945068359400,58.8749084472656250,13.2447795867919920,34.9301795959472660,36.9443016052246100,40.2971992492675800,3.3528978824615480,761.3563232421875000,676.4932250976562000,413.9695129394531000,15820
2,1314198043,4330,355,191.5596008300781200,58.5838088989257800,13.2444400787353520,34.9904289245605500,37.0031585693359400,40.3366088867187500,3.3334500789642334,762.9151000976562000,676.5100097656250000,413.9804077148437500,64538
2,1314201643,4330,355,193.8778076171875000,59.2932815551757800,13.2447996139526370,34.8441390991210940,36.8602409362793000,40.2146492004394500,3.3544080257415770,758.9138793945312000,676.4644165039062000,413.9688110351562500,39265
2,1314205243,4330,355,193.2993011474609400,59.1220893859863300,13.2491703033447270,34.8786010742187500,36.8939094543457000,40.2420310974121100,3.3481290340423584,759.8682250976562000,676.3875122070312000,413.8284912109375000,49599
2,1314208843,4330,355,190.9337005615234400,58.4017295837402340,13.2516098022460940,35.0263900756835940,37.0382995605468750,40.3915710449218750,3.3532710075378420,763.7733154296875000,676.3624877929688000,413.7500000000000000,49006
2,1314212443,4330,355,192.8856964111328000,59.0023307800293000,13.2543096542358400,34.9019699096679700,36.9167289733886700,40.2578315734863300,3.3410949707031250,760.5046997070312000,676.3021850585938000,413.6633911132812500,11621
2,1314216043,4330,355,196.6436004638672000,60.1659393310546900,13.2648200988769530,34.6626701354980500,36.6829414367675800,40.0250396728515600,3.3421020507812500,754.1602172851562000,676.2175903320312000,413.3257141113281000,36292
2,1314219643,4330,355,197.2223968505859400,60.3442001342773440,13.2656803131103520,34.6263008117675800,36.6474113464355500,39.9922485351562500,3.3448410034179688,753.2415771484375000,676.1795043945312000,413.2980957031250000,25861
2,1314223243,4330,355,192.7427062988281200,58.9730110168457000,13.2652997970581050,34.9048881530761700,36.9195899963378900,40.2743988037109400,3.3548130989074707,760.4495239257812000,676.1979980468750000,413.3102111816406000,50626
2,1314226843,4330,355,190.7322998046875000,58.3573493957519500,13.2648696899414060,35.0331192016601560,37.0448684692382800,40.3925285339355500,3.3476641178131104,763.8579101562500000,676.1411743164062000,413.3239135742187500,52664
2,1314230443,4330,355,192.2411956787109400,58.8133697509765600,13.2605495452880860,34.9394302368164060,36.9533386230468750,40.2928314208984400,3.3394930362701416,761.3400268554688000,676.1743164062500000,413.4627990722656000,8685
2,1314234043,4330,355,191.9486999511718800,58.7210617065429700,13.2583999633789060,34.9590682983398440,36.9725189208984400,40.3183403015136700,3.3458249568939210,761.8881225585938000,676.2055053710938000,413.5317993164062500,51707
2,1314237643,4330,355,190.7760925292968800,58.3596611022949200,13.2563495635986330,35.0341186523437500,37.0458488464355500,40.3852195739746100,3.3393781185150146,763.8875122070312000,676.1956176757812000,413.5976867675781000,27007
2,1314241243,4330,355,191.4658966064453000,58.5646400451660160,13.2517099380493160,34.9924392700195300,37.0051307678222660,40.3477592468261700,3.3426361083984375,762.7271118164062000,676.2111206054688000,413.7468872070312500,26937
2,1314244843,4330,355,190.1885070800781200,58.1684989929199200,13.2475299835205080,35.0761909484863300,37.0869483947753900,40.4284095764160160,3.3414540290832520,764.8787841796875000,676.2100830078125000,413.8811950683594000,36490
2,1314248444,4330,355,194.4028015136718800,59.4700813293457000,13.2570600509643550,34.8052787780761700,36.8222694396972660,40.1547889709472660,3.3325200080871580,757.8510742187500000,676.2014770507812000,413.5747985839844000,23122
2,1314252044,4330,355,193.9933013916015600,59.3436203002929700,13.2561998367309570,34.8313407897949200,36.8477287292480500,40.1870689392089840,3.3393399715423584,758.5173950195312000,676.1644897460938000,413.6025085449219000,20253
2,1314255644,4330,355,195.5335998535156200,59.8229217529296900,13.2622804641723630,34.7318916320800800,36.7505607604980500,40.0913200378418000,3.3407590389251710,755.9403076171875000,676.1840820312500000,413.4072875976562500,48799
2,1314259244,4330,355,192.1329040527343800,58.7833900451660160,13.2629699707031250,34.9449691772460940,36.9587516784668000,40.3071899414062500,3.3484420776367188,761.3792114257812000,676.1251220703125000,413.3848876953125000,16758
2,1314262844,4330,355,190.8778991699218800,58.3993606567382800,13.2629098892211910,35.0243301391601560,37.0362815856933600,40.3727989196777340,3.3365249633789062,763.5745849609375000,676.1057128906250000,413.3869934082031000,48050
2,1314266444,4330,355,194.1271057128906200,59.3941612243652340,13.2634601593017580,34.8191413879394500,36.8358116149902340,40.1841087341308600,3.3483049869537354,758.0535278320312000,676.0361938476562000,413.3693847656250000,14474
2,1314270044,4330,355,190.7266998291015600,58.3535995483398440,13.2633104324340820,35.0340995788574200,37.0458297729492200,40.3911705017089840,3.3453450202941895,763.7061157226562000,676.0648193359375000,413.3739929199219000,44589
2,1314273644,4330,355,190.6277008056640600,58.3233489990234400,13.2633304595947270,35.0405082702636700,37.0520896911621100,40.4026489257812500,3.3505630493164062,763.7515869140625000,676.0275878906250000,413.3735046386719000,61765
2,1314277244,4330,355,194.3115997314453000,59.4508399963378900,13.2636098861694340,34.8074607849121100,36.8243904113769500,40.1756401062011700,3.3512499332427980,757.6619262695312000,676.0598144531250000,413.3645019531250000,65134
2,1314280844,4330,355,190.4427032470703000,58.2671089172363300,13.2636003494262700,35.0517616271972660,37.0630798339843750,40.4172782897949200,3.3542020320892334,763.9984130859375000,676.0277099609375000,413.3648986816406000,38515
2,1314284444,4330,355,191.0742950439453000,58.4610404968261700,13.2641201019287110,35.0115509033203100,37.0237998962402340,40.3693504333496100,3.3455579280853270,763.1209716796875000,676.0540161132812000,413.3479919433594000,51969
2,1314288044,4330,355,191.8509063720703000,58.6987113952636700,13.2642002105712890,34.9623298645019500,36.9757118225097660,40.3041687011718750,3.3284609317779540,761.8472900390625000,676.0172119140625000,413.3456115722656000,56429
2,1314291643,4330,355,191.3656005859375000,58.5513191223144500,13.2650098800659180,34.9923286437988300,37.0050201416015600,40.3578605651855500,3.3528439998626710,762.5358886718750000,676.0051269531250000,413.3193969726562500,43722
2,1314295243,4330,355,190.9058074951172000,58.4104881286621100,13.2649297714233400,35.0219688415527340,37.0339698791503900,40.3797607421875000,3.3457870483398438,763.3690185546875000,675.9780883789062000,413.3219909667969000,13745
2,1314298843,4330,355,188.6329956054687500,57.7149314880371100,13.2647600173950200,35.1676406860351560,37.1762886047363300,40.5218696594238300,3.3455729484558105,767.1862792968750000,676.0239868164062000,413.3273925781250000,40931
2,1314302443,4330,355,189.1293945312500000,57.8668289184570300,13.2648000717163090,35.1357116699218750,37.1450996398925800,40.4883613586425800,3.3432540893554688,766.3524780273438000,676.0130004882812000,413.3262939453125000,64424
2,1314306044,4330,355,193.7823944091797000,59.2886810302734400,13.2634201049804690,34.8410682678222660,36.8572387695312500,40.1927604675293000,3.3355259895324707,758.5756835937500000,675.9899291992188000,413.3706054687500000,46835
2,1314309644,4330,355,191.2985992431640600,58.5292205810546900,13.2637996673583980,34.9974288940429700,37.0099983215332000,40.3476409912109400,3.3376390933990480,762.6964111328125000,675.9594726562500000,413.3584899902344000,41847
2,1314313244,4330,355,193.6213989257812500,59.2402801513671900,13.2640895843505860,34.8502693176269500,36.8662300109863300,40.2056388854980500,3.3394169807434080,758.6762084960938000,675.9166259765625000,413.3489074707031000,27608
2,1314316844,4330,355,190.3717041015625000,58.2459793090820300,13.2640695571899410,35.0559387207031250,37.0671615600585940,40.4085998535156250,3.3414380550384520,764.1168212890625000,675.9495849609375000,413.3497009277344000,59878
2,1314320444,4330,355,191.1416931152343800,58.4813690185546900,13.2639198303222660,35.0073699951171900,37.0197105407714840,40.3608093261718750,3.3410949707031250,762.8499145507812000,675.9243164062500000,413.3546142578125000,47035
2,1314324044,4330,355,188.4842987060547000,57.6680107116699200,13.2636699676513670,35.1779212951660160,37.1863403320312500,40.5300903320312500,3.3437500000000000,767.1503295898438000,675.9083862304688000,413.3627014160156000,21401
2,1314327644,4330,355,191.2899017333984400,58.5248107910156250,13.2624502182006840,34.9987716674804700,37.0113105773925800,40.3538513183593750,3.3425450325012207,762.4700927734375000,675.8850708007812000,413.4018859863281000,55603
2,1314331244,4330,355,189.2895050048828000,57.9023895263671900,13.2543802261352540,35.1305007934570300,37.1400108337402340,40.4833106994628900,3.3433001041412354,765.9362792968750000,675.9459228515625000,413.6610107421875000,50481
2,1314334843,4330,355,196.6658935546875000,60.1654090881347660,13.2593402862548830,34.6638412475585940,36.6840782165527340,40.0241394042968750,3.3400568962097170,753.7562866210938000,675.8665771484375000,413.5015869140625000,51018
2,1314338443,4330,355,196.6490936279297000,60.1681594848632800,13.2652196884155270,34.6614418029785160,36.6817398071289060,40.0218696594238300,3.3401260375976562,753.5535278320312000,675.7869873046875000,413.3127136230469000,40109
2,1314342044,4330,355,193.3695068359375000,59.1649208068847660,13.2653799057006840,34.8658218383789060,36.8814201354980500,40.2192382812500000,3.3378219604492188,758.8629760742188000,675.7626953125000000,413.3075866699219000,40967
2,1314345644,4330,355,189.6986999511718800,58.0415992736816400,13.2652597427368160,35.0985488891601560,37.1087989807128900,40.4443817138671900,3.3355870246887207,765.1329956054688000,675.7650146484375000,413.3114929199219000,17748
2,1314349244,4330,355,188.7192993164062500,57.7419815063476560,13.2652997970581050,35.1613388061523440,37.1701393127441400,40.5153503417968750,3.3452069759368896,766.5479736328125000,675.7905883789062000,413.3103027343750000,46798
2,1314352844,4330,355,188.8800048828125000,57.7912406921386700,13.2653398513793950,35.1510086059570300,37.1600494384765600,40.5060386657714840,3.3459930419921875,766.3880004882812000,675.7772827148438000,413.3088989257812500,3450
2,1314356444,4330,355,190.9322967529297000,58.4188804626464840,13.2651395797729500,35.0199089050293000,37.0319595336914060,40.3650207519531250,3.3330609798431396,762.8897705078125000,675.6945800781250000,413.3151855468750000,22055
2,1314360043,4330,355,189.0350036621093800,57.8379783630371100,13.2648296356201170,35.1411895751953100,37.1504592895507800,40.4879302978515600,3.3374710083007812,766.1727294921875000,675.6981811523438000,413.3251037597656000,61932
2,1314363643,4330,355,190.0982971191406200,58.1618499755859400,13.2637100219726560,35.0738792419433600,37.0846900939941400,40.4218406677246100,3.3371510505676270,764.3289794921875000,675.7324218750000000,413.3612060546875000,18069
2,1314367243,4330,355,190.3260040283203000,58.2316093444824200,13.2637796401977540,35.0589485168457000,37.0701103210449200,40.4160308837890600,3.3459239006042480,763.8643798828125000,675.7009277343750000,413.3591918945312500,18169
2,1314370844,4330,355,191.0682983398437500,58.4578208923339840,13.2630996704101560,35.0121994018554700,37.0244293212890600,40.3608589172363300,3.3364260196685790,762.6652832031250000,675.7003173828125000,413.3807983398437500,62621
2,1314374443,4330,355,194.1900939941406200,59.4012489318847660,13.2542400360107420,34.8198585510253900,36.8365211486816400,40.1749114990234400,3.3383939266204834,757.5985717773438000,675.7963256835938000,413.6654968261719000,47342
2,1314378043,4330,355,192.8047027587890600,58.9816703796386700,13.2574396133422850,34.9052696228027340,36.9199600219726560,40.2598114013671900,3.3398509025573730,759.7910156250000000,675.7100830078125000,413.5628051757812500,47457
2,1314381643,4330,355,194.4745025634765600,59.5013694763183600,13.2641201019287110,34.7972488403320300,36.8144187927246100,40.1487312316894500,3.3343050479888916,756.9755249023438000,675.6688232421875000,413.3481140136719000,42303
2,1314385243,4330,355,192.5749969482422000,58.9208602905273440,13.2646398544311520,34.9160308837890600,36.9304695129394500,40.2681999206543000,3.3377299308776855,760.1173706054688000,675.6522827148438000,413.3312988281250000,23193
2,1314388843,4330,355,189.2395935058593800,57.9006690979003900,13.2648897171020500,35.1280288696289060,37.1375999450683600,40.4715385437011700,3.3339459896087646,765.6610717773438000,675.6718139648438000,413.3234863281250000,14929
2,1314392443,4330,355,188.7404022216797000,57.7481002807617200,13.2650098800659180,35.1604003906250000,37.1692199707031250,40.5077095031738300,3.3384859561920166,766.4370117187500000,675.5847778320312000,413.3194885253906000,38819
2,1314396043,4330,355,189.7232971191406200,58.0488815307617200,13.2650699615478520,35.0975303649902340,37.1077995300293000,40.4528999328613300,3.3450999259948730,764.6967163085938000,675.6002807617188000,413.3175964355469000,10927
2,1314399643,4330,355,188.4772949218750000,57.6668395996093750,13.2644300460815430,35.1777305603027340,37.1861495971679700,40.5213584899902340,3.3352129459381104,766.7214965820312000,675.5510864257812000,413.3380126953125000,34090
2,1314403243,4330,355,194.9127044677734400,59.6366691589355500,13.2650699615478520,34.7696800231933600,36.7874794006347660,40.1240501403808600,3.3365709781646730,756.1417236328125000,675.4984741210938000,413.3176879882812500,40919
2,1314406843,4330,355,195.0043945312500000,59.6653709411621100,13.2655601501464840,34.7638092041015600,36.7817497253418000,40.1100006103515600,3.3282549381256104,756.0078735351562000,675.5336914062500000,413.3019104003906000,54549
2,1314410443,4330,355,194.2933044433593800,59.4476013183593750,13.2654104232788090,34.8075599670410160,36.8244895935058600,40.1675415039062500,3.3430480957031250,756.9475708007812000,675.5017089843750000,413.3067016601562500,42739